Regional Weather Roundup
Issued by NWS Sioux Falls, SD

Home | Current Version | Previous Version | Text Only | Print | Product List | Glossary On
Versions: 1 2 3 4 5 6 7 8 9 10 11 12 13 14 15 16 17 18 19 20 21 22 23 24 25 26 27 28 29 30 31 32 33 34 35 36 37 38 39 40 41 42 43 44 45 46 47 48 49 50
000
ASUS43 KFSD 190010
RWRFSD

WEATHER ROUNDUP FOR SE SOUTH DAKOTA/SW MINNESOTA/NW IOWA
NATIONAL WEATHER SERVICE SIOUX FALLS SD
600 PM CST SUN FEB 18 2018

NOTE: "FAIR" INDICATES FEW OR NO CLOUDS BELOW 12,000 FEET WITH NO
SIGNIFICANT WEATHER AND OR OBSTRUCTIONS TO VISIBILITY.


SDZ038>040-050-052>070-190100-
SOUTHEAST SOUTH DAKOTA

CITY           SKY/WX    TMP DP  RH WIND       PRES   REMARKS
CHAMBERLAIN    CLOUDY    23  19  85 NW20G25   29.71F WCI   9
6HR MIN TEMP:  23; 6HR MAX TEMP:  34;

HURON          MOCLDY    22  16  78 N23G32    29.74R WCI   6
6HR MIN TEMP:  22; 6HR MAX TEMP:  38;

MADISON        FAIR      32  28  86 N23G29    29.63R WCI  19
MITCHELL       MOCLDY    27  22  81 N24G30    29.70R WCI  12
6HR MIN TEMP:  27; 6HR MAX TEMP:  45;

SIOUX FALLS    CLOUDY    35  29  78 NW10      29.60R WCI  27
6HR MIN TEMP:  35; 6HR MAX TEMP:  44;

WINNER         CLOUDY    22  18  85 N28G33    29.69F WCI   4
YANKTON        CLOUDY    32  28  85 NW21      29.62R WCI  20
$$

MNZ071-072-080-081-089-090-097-098-190100-
SOUTHWEST MINNESOTA

CITY           SKY/WX    TMP DP  RH WIND       PRES   REMARKS
FAIRMONT       PTCLDY    36  31  82 S7        29.61S
JACKSON        CLOUDY    37  32  81 S5        29.61R
LUVERNE        CLOUDY    36  30  80 W5        29.60R
MARSHALL       CLOUDY    33  21  61 N21G26    29.63R WCI  21
6HR MIN TEMP:  33; 6HR MAX TEMP:  48;

MONTEVIDEO     CLOUDY    32  19  59 N17G24    29.65R WCI  21
PIPESTONE      CLOUDY    34  25  69 NE13G21   29.60R WCI  25
REDWOOD FALLS  CLOUDY    41  27  57 NW12G20   29.60R
TRACY          CLOUDY    37  27  68 N14G20    29.61R
WINDOM         CLOUDY    37  21  52 CALM      29.60R
WORTHINGTON    CLOUDY    35  31  85 W5        29.59R
$$

IAZ001>003-012>014-020>022-031-032-NEZ013-014-SDZ071-190100-
NORTHWEST IOWA

CITY           SKY/WX    TMP DP  RH WIND       PRES   REMARKS
CHEROKEE       CLOUDY    41  32  71 S5        29.59R
DENISON        CLEAR     46  32  57 S15G21    29.61R
ESTHERVILLE    PTCLDY    36  30  79 S6        29.60R
LE MARS        CLOUDY    41  34  75 SE5       29.58R
ORANGE CITY    CLOUDY    43  36  75 CALM      29.58R
SHELDON        CLOUDY    37  34  87 S5        29.57R
SIOUX CITY     CLEAR     41  33  73 N5        29.58R
6HR MIN TEMP:  41; 6HR MAX TEMP:  48;

SPENCER        CLOUDY    40  32  73 NW3       29.60R
6HR MIN TEMP:  38; 6HR MAX TEMP:  44;

STORM LAKE     CLEAR     39  32  75 S14       29.59R
$$

ABBREVIATIONS USED IN REMARKS
   TC - TEMPERATURE IN CELSIUS
  WCI - WIND CHILL INDEX
   HX - HEAT INDEX
  VSB - VISIBILITY




USA.gov is the U.S. government's official web portal to all federal, state and local government web resources and services.